Location: Gwatt
(46.7204°N, 7.6223°E)
Time: 19:53:04
(UTC+00:00)

Transit 2A - Pass Details

Date: 22 January 2021
Orbit: 600 x 958 km, 66.7° (Epoch: 26 February)

Event Time Altitude Azimuth Distance (km) Brightness Sun altitude
Rises 14:01:49 0° 307° (NW) 2,964 9.0 16.5°
Reaches altitude 10° 14:05:52 10° 272° (W) 1,988 8.7 16.1°
Maximum altitude 14:07:04 11° 256° (WSW) 1,907 9.0 16.0°
Drops below altitude 10° 14:08:16 10° 240° (WSW) 1,960 9.6 15.9°
Sets 14:12:10 0° 204° (SSW) 2,836 10.6 15.5°
